Location: *
(51.5000°N, 0.1100°W)
Time: 18:10:56
(UTC+00:00)

Cosmos 2360 Rocket - Pass Details

Date: 25 May 2024
Orbit: 832 x 846 km, 71.0° (Epoch: 16 June)

Event Time Altitude Azimuth Distance (km) Brightness Sun altitude
Rises 01:24:11 0° 330° (NNW) 3,417 5.9 -15.0°
Reaches altitude 10° 01:26:39 10° 332° (NNW) 2,479 5.2 -14.9°
Maximum altitude 01:32:21 71° 57° (ENE) 895 2.5 -14.6°
Drops below altitude 10° 01:38:00 10° 142° (SE) 2,464 4.4 -14.2°
Sets 01:40:27 0° 144° (SE) 3,394 5.1 -14.0°
